Simultaneous Nadir Overpasses (SNOs) Predictions

Prediction of SNOs between METOP-B and TERRA Satellite Orbit:

Table of predicted SNOs for the next 14.0 days since TLE Epoch: 2/22/2020
Index Date (METOP-B) Time (METOP-B) Lat,Lon (METOP-B) SZA (METOP-B ) Date (TERRA) Time (TERRA) Lat,Lon (TERRA) SZA (TERRA ) Distance(km) Time Diff (sec)
1 02/24/2020 17:04:40 -81.29, 150.60 86.93 02/24/2020 17:05:34 -81.29, 150.46 86.92 2.51 54
2 02/24/2020 17:55:20 81.29, -41.91 93.08 02/24/2020 17:55:00 81.29, -41.82 93.08 1.58 20
3 02/27/2020 12:39:02 -81.29,-142.85 87.94 02/27/2020 12:39:47 -81.30,-142.87 87.92 0.68 45
4 02/27/2020 13:29:42 81.30, 24.63 92.07 02/27/2020 13:29:13 81.30, 24.81 92.08 3.16 29
5 03/01/2020 08:13:25 -81.30, -76.31 88.97 03/01/2020 08:14:00 -81.30, -76.42 88.97 1.83 35
6 03/01/2020 09:04:05 81.30, 91.15 91.03 03/01/2020 09:03:26 81.30, 91.22 91.02 1.28 39
7 03/04/2020 03:47:49 -81.29, -10.19 90.06 03/04/2020 03:48:12 -81.29, -10.19 90.06 0.56 23
8 03/04/2020 04:38:28 81.30, 157.65 89.99 03/04/2020 04:37:37 81.31, 157.80 89.98 2.50 51
9 03/06/2020 23:22:11 -81.30, 56.69 91.08 03/06/2020 23:22:21 -81.30, 56.57 91.08 2.12 10




NCC Satellite Simultaneous Nadir Overpasses (SNOs) Prediction Service
